Flag for Canada Weather past 2 weeks in Welland, Ontario, Canada

Now
54 °F

Cool.


Feels Like: 49 °F
Forecast: 46 / 54 °F
Wind: 22 mph from Southwest

Location: Port Colborne Airport

Current Time: Oct 21, 2014 at 1:37:02 AM

Latest Report: Oct 21, 2014 at 1:00 AM


Visibility: N/A

Pressure: 29.78 "Hg

Humidity: 87%

Dew point: 50 °F

Location of WellandLocation

Historic Weather in Welland — Graph

°F

Welland temperature yesterday

Maximum temperature yesterday: 58 °F (at 7:00 PM)
Minimum temperature yesterday: 47 °F (at 3:00 AM)
Average temperature yesterday: 53 °F

Past Weeks' High & Low Weather Summary

 TemperatureHumidityPressure
High72 °F (Oct 14, 4:00 PM)96% (Oct 16, 7:00 AM)30.29 "Hg (Oct 16, 7:00 AM)
Low39 °F (Oct 19, 10:00 AM)35% (Oct 12, 5:00 PM)29.52 "Hg (Oct 17, 11:00 PM)
Average55 °F69%29.90 "Hg
* Reported Midnight between Oct 5 and Oct 6 — Midnight between Oct 20 and Oct 21, Welland, Weather by CustomWeather, © 2014

Note: Actual official high and low records may vary slightly from our data, if they occured in-between our weather recording intervals... More about our weather records

Advertising

Welland weather history for previous 24 hours

 ConditionsComfort  
Time TempWeatherWind HumidityBarometerVisibility
12:00 AM
Oct 21
53 °FCool.23 mph86%29.80 "HgN/A
11:00 PM
Oct 20
54 °FCool.21 mph72%29.82 "HgN/A
10:00 PM56 °FCool.24 mph70%29.82 "HgN/A
9:00 PM55 °FCool.28 mph73%29.82 "HgN/A
8:00 PM56 °FCool.25 mph69%29.82 "HgN/A
7:00 PM58 °FCool.20 mph65%29.81 "HgN/A
6:00 PM57 °FCool.20 mph63%29.81 "HgN/A
5:00 PM57 °FCool.22 mph66%29.81 "HgN/A
4:00 PM56 °FCool.24 mph65%29.82 "HgN/A
3:00 PM55 °FCool.23 mph68%29.83 "HgN/A
2:00 PM53 °FCool.22 mph68%29.85 "HgN/A
1:00 PM53 °FCool.22 mph72%29.86 "HgN/A
12:00 PM53 °FCool.24 mph69%29.88 "HgN/A
11:00 AM53 °FCool.28 mph67%29.90 "HgN/A
10:00 AM53 °FCool.24 mph67%29.90 "HgN/A
9:00 AM53 °FCool.24 mph66%29.91 "HgN/A
8:00 AM53 °FCool.28 mph66%29.92 "HgN/A
7:00 AM53 °FCool.23 mph69%29.92 "HgN/A
6:00 AM49 °FCool.1 mph69%29.94 "HgN/A
5:00 AM47 °FCool.1 mph60%29.97 "HgN/A
4:00 AM47 °FCool.3 mph65%29.98 "HgN/A
3:00 AM47 °FCool.8 mph67%30.00 "HgN/A
2:00 AM47 °FCool.6 mph71%30.00 "HgN/A
1:00 AM49 °FCool.9 mph68%30.00 "HgN/A
Weather by CustomWeather, © 2014

See weather overviewHow to use our weather pages